GFSGL_250_spd_000.txt.gz
Wind_Speed
108 105 105 104 106 101 101 104 106 106 102 98 96 99 103 102 103 99 98 102 101 103 106 107 106 108 110 111 113 112 113 112 113 113 114 116 116 115 117 113 120 124 120
123 112 110 111 110 110 110 112 112 111 109 108 105 104 108 108 109 110 110 113 113 111 112 116 113 113 115 118 117 118 115 115 106 113 113 111 107 115 115 120 120 117 113
123 119 109 114 118 115 117 119 118 113 116 118 116 116 114 115 116 118 116 117 118 118 119 118 117 118 121 120 119 116 117 119 119 119 115 110 115 111 113 108 109 108 115
114 108 116 118 118 115 118 120 122 124 121 126 124 122 123 120 122 122 121 125 123 123 122 122 124 125 123 115 115 117 117 117 115 114 117 118 115 112 106 111 110 107 105
102 98 98 106 104 112 116 118 114 115 118 124 127 128 129 126 121 122 121 124 125 124 121 119 116 112 114 115 112 108 106 109 107 100 103 110 107 101 97 97 95 99 98
101 104 106 106 109 106 106 110 111 115 116 121 124 127 128 126 124 126 127 123 125 124 123 126 122 119 116 111 112 107 106 109 102 100 102 100 99 96 93 89 87 87 86
114 109 111 112 114 112 110 110 106 111 114 114 118 124 124 121 122 123 122 120 122 120 117 115 122 117 117 115 107 104 105 99 96 98 98 97 93 91 88 86 91 86 91
106 107 106 108 115 115 114 113 112 113 110 111 113 114 120 115 107 107 109 107 113 116 114 113 116 117 117 115 106 105 105 102 98 98 98 98 94 92 91 91 90 88 90
109 110 109 111 114 117 114 111 110 110 110 110 112 113 110 111 107 109 111 114 121 112 116 118 121 123 128 113 114 110 106 104 102 100 101 100 100 99 95 94 89 86 83
112 114 113 113 114 115 115 112 112 109 108 106 106 107 112 113 110 120 121 124 118 121 122 121 129 124 118 116 114 111 110 104 105 106 102 105 105 104 101 94 87 86 86
103 104 108 112 112 114 116 113 113 113 113 113 115 114 112 115 123 118 121 127 129 127 126 123 120 118 119 117 114 109 108 108 110 108 108 108 108 106 102 94 89 85 78
102 106 108 111 111 112 114 114 114 115 115 116 115 116 114 117 116 114 115 115 122 115 118 119 117 114 116 113 111 113 112 111 111 111 112 108 108 105 100 92 84 81 79
100 102 102 105 103 109 115 115 114 116 115 115 114 114 114 114 116 115 115 113 117 114 113 113 115 114 114 115 113 114 112 111 112 111 109 106 104 103 98 93 84 79 78
94 98 99 96 97 106 112 112 114 113 113 112 112 112 111 112 115 114 114 111 114 111 112 110 116 117 114 116 115 116 113 110 109 108 105 102 103 98 97 91 84 82 84
88 90 93 94 95 102 105 108 114 114 114 111 109 111 111 111 113 114 112 111 111 112 114 114 117 116 118 118 116 117 111 109 107 105 106 106 105 103 97 92 89 86 85
82 84 86 88 89 97 101 104 109 111 109 107 109 111 108 108 109 112 111 112 112 114 115 113 113 116 117 116 116 116 113 106 106 107 109 111 113 108 103 100 95 87 86
79 79 80 82 85 89 95 101 103 105 105 102 103 105 105 108 109 112 113 114 112 111 110 108 110 114 114 113 116 117 118 115 113 109 111 113 112 107 107 101 91 84 83
75 73 75 77 78 80 85 90 94 99 100 99 96 103 105 104 107 110 111 113 111 109 108 108 110 114 115 116 116 117 117 116 115 116 116 114 111 104 97 88 81 78 77
77 73 70 70 71 74 75 79 85 87 90 93 94 100 100 101 105 107 108 109 107 106 105 108 110 112 114 114 116 117 115 115 114 110 107 103 98 92 84 80 76 76 75
75 75 74 71 70 70 72 74 75 76 79 84 87 93 96 96 96 101 104 105 101 100 103 104 104 108 109 111 112 112 111 106 104 101 98 94 90 87 84 80 77 75 77
72 74 73 73 72 69 70 73 73 72 73 76 79 82 88 90 95 96 96 96 97 98 98 97 99 104 103 107 107 105 100 97 93 93 94 90 88 87 85 81 78 77 77
63 65 67 68 70 71 69 68 69 70 72 73 74 77 82 82 82 85 89 90 92 91 94 94 97 98 99 99 97 94 92 91 90 91 91 90 88 88 86 83 80 77 76
55 57 58 61 64 67 69 68 66 66 68 71 74 73 71 75 80 81 81 83 85 86 90 92 93 92 92 92 90 89 90 90 89 88 90 87 88 88 85 82 79 75 75
50 51 52 54 57 60 63 65 65 65 66 68 70 71 73 73 74 74 75 78 82 85 89 89 88 87 88 88 89 89 89 89 89 86 84 84 85 83 81 79 76 73 72
47 47 47 49 50 54 57 60 62 63 64 64 66 69 71 72 74 77 79 82 86 87 86 86 85 85 88 88 86 88 88 86 84 82 79 81 81 80 77 75 73 71 67
43 44 44 45 46 48 50 54 57 59 61 62 64 66 69 71 74 76 79 82 83 82 82 81 81 81 82 82 82 82 82 81 79 78 78 78 78 76 75 74 71 68 61

GFSGL_250_spd_003.txt.gz
Wind_Speed
112 113 112 113 112 109 105 108 114 109 108 108 108 108 104 103 102 100 103 104 102 101 102 100 100 97 100 101 102 101 105 108 109 113 116 118 118 117 116 120 119 119 117
114 116 115 116 113 109 108 108 114 116 116 112 116 116 112 110 110 109 109 108 107 109 111 110 109 108 110 111 109 110 114 113 117 119 121 120 121 122 120 116 119 122 118
112 113 109 113 119 113 111 110 114 119 119 123 125 121 117 118 117 116 115 115 114 113 115 117 118 117 117 115 116 118 120 120 122 123 121 123 122 117 118 117 115 115 115
118 120 122 120 119 122 118 118 117 116 119 123 124 128 128 128 122 122 121 122 121 122 124 125 119 116 119 121 121 120 123 125 123 125 123 121 122 119 117 110 112 109 110
123 125 125 127 126 128 129 122 119 115 119 123 121 124 130 130 127 127 127 128 129 128 130 126 124 124 124 124 122 120 124 125 123 126 126 127 127 127 126 122 115 112 113
111 116 122 129 131 128 126 124 120 115 117 120 116 117 119 120 126 130 129 130 128 128 126 130 125 128 125 121 119 121 123 127 132 127 126 122 120 118 107 119 119 109 102
109 112 112 110 109 113 118 121 121 116 112 113 116 119 116 111 116 115 114 114 112 116 119 121 120 119 116 115 115 118 127 120 123 121 120 113 116 104 106 105 103 100 98
106 107 109 111 110 110 110 111 112 113 115 113 112 114 114 117 119 119 115 116 112 112 112 108 110 113 115 114 116 121 124 122 120 118 119 117 107 110 102 102 100 101 99
102 101 104 108 109 113 117 117 116 115 115 116 117 119 117 117 118 118 120 116 113 115 112 110 112 113 113 116 116 115 120 119 117 118 117 115 111 108 102 101 101 101 100
102 101 104 106 109 113 115 114 118 122 119 118 118 117 119 120 118 116 112 109 108 108 115 109 114 110 114 118 118 117 118 115 117 120 110 107 108 107 105 106 105 104 102
100 101 102 104 106 112 115 117 115 116 121 122 120 119 118 118 119 117 113 108 109 110 110 106 109 108 110 115 110 111 115 119 117 112 112 111 109 107 107 105 104 106 106
96 97 97 101 104 106 113 115 119 118 117 120 124 125 123 121 120 119 115 111 113 111 116 115 110 119 115 109 107 116 123 122 117 117 115 112 111 108 110 108 107 109 113
92 91 93 94 95 100 105 108 114 121 121 120 121 121 122 121 120 119 119 117 116 112 112 113 112 116 110 108 116 121 120 120 114 116 120 116 113 112 113 107 109 114 117
93 93 94 91 92 95 98 101 107 111 116 123 123 121 120 120 118 116 115 113 110 110 111 109 109 111 112 115 117 115 117 119 117 117 117 116 113 117 112 111 113 114 117
87 89 89 90 91 93 95 96 98 102 112 116 118 122 122 120 122 122 120 117 114 112 113 113 111 112 113 112 113 114 116 116 119 116 118 115 117 117 115 112 113 112 114
82 84 83 84 85 85 87 92 94 97 104 109 112 115 117 118 119 121 121 120 117 114 114 113 112 109 110 111 112 118 115 117 118 118 120 120 117 117 115 114 112 113 108
77 79 77 75 76 77 78 81 88 92 96 101 103 108 113 115 117 120 122 121 116 113 112 115 113 110 112 112 113 119 122 116 118 117 117 119 119 118 118 115 115 111 103
70 73 75 74 71 70 72 74 76 81 82 86 94 97 104 110 116 117 120 121 116 114 111 112 112 113 113 115 117 120 123 120 118 118 117 117 118 119 121 120 119 116 109
65 68 69 71 71 69 66 68 71 72 75 77 82 83 93 102 108 112 115 117 115 114 113 113 113 115 118 120 124 120 122 122 119 118 119 117 117 120 121 120 118 112 106
60 61 64 67 69 68 65 63 64 67 70 71 74 78 84 92 95 101 106 109 110 109 110 109 113 118 120 120 122 123 121 119 117 118 117 117 118 118 116 113 108 106 103
55 55 57 59 62 64 63 62 61 62 64 65 68 73 76 80 86 91 95 95 97 100 106 103 110 112 116 117 118 119 119 119 117 117 114 114 112 110 106 104 100 97 95
49 50 51 52 55 57 59 59 60 60 60 62 63 68 71 73 78 82 84 88 92 92 95 94 102 106 106 107 109 111 112 111 111 112 111 109 106 102 99 96 94 93 91
45 45 46 48 49 51 53 55 56 57 57 59 62 64 67 72 75 77 79 81 83 83 84 86 89 93 95 98 99 101 100 102 103 103 100 98 96 93 90 89 91 91 90
45 45 45 46 47 48 49 50 51 53 53 54 57 60 65 68 70 72 74 74 75 76 78 80 82 85 87 88 90 93 92 91 91 92 91 88 88 87 89 91 92 89 85
41 41 42 43 44 45 45 46 47 48 50 50 51 54 58 62 64 67 70 71 73 76 76 77 79 80 82 85 87 88 88 89 88 86 85 84 86 88 89 89 86 83 81
36 36 36 37 39 41 43 43 43 44 45 47 48 50 53 56 59 62 65 68 71 74 76 78 80 81 83 84 85 87 86 84 83 84 86 86 87 87 85 82 80 78 77

GFSGL_250_spd_006.txt.gz
Wind_Speed
128 124 120 117 116 116 116 118 118 118 118 115 116 113 114 112 111 110 109 109 106 106 105 104 104 101 101 102 102 102 100 101 98 99 96 97 98 101 104 106 109 108 111
130 129 123 123 122 121 116 119 122 123 123 124 123 122 122 122 122 117 117 116 117 116 115 114 114 112 109 108 108 108 108 108 109 107 103 105 106 106 109 114 115 116 118
128 127 125 124 123 121 119 116 118 123 121 128 126 127 126 127 128 128 122 118 122 126 122 122 122 119 115 114 114 115 115 115 115 114 112 111 111 113 114 116 119 118 122
121 123 121 119 119 117 116 119 118 121 122 120 125 129 133 127 127 126 126 120 112 119 127 130 129 127 124 121 121 122 122 122 121 118 118 121 118 122 122 125 125 124 126
116 116 114 117 117 120 121 122 121 123 124 128 124 123 125 125 125 123 123 120 117 115 119 121 127 131 132 128 126 126 125 125 128 125 120 123 126 127 128 128 128 127 132
121 120 116 115 114 114 116 116 114 112 115 120 121 125 130 125 126 126 126 122 124 118 118 122 119 123 128 131 131 132 131 127 122 123 128 126 125 125 125 132 130 126 124
117 122 122 118 120 122 118 116 120 121 118 114 119 120 129 126 130 127 126 128 126 129 123 116 117 117 121 126 129 132 132 131 128 124 123 116 124 125 121 128 132 129 121
109 114 120 123 121 123 125 121 118 118 120 122 121 115 119 121 123 124 128 128 127 124 121 118 115 119 114 117 120 123 123 122 117 117 120 120 122 120 119 124 124 122 116
107 108 109 115 121 123 123 126 125 122 118 117 121 121 120 121 122 122 126 116 117 118 119 119 115 116 112 116 115 113 113 108 106 110 115 118 118 119 123 127 125 122 120
101 105 108 110 112 115 119 122 125 127 126 124 122 122 121 119 119 119 121 118 118 117 117 113 114 112 117 119 115 115 114 108 109 110 116 118 121 117 119 123 122 121 117
99 101 104 107 107 110 112 115 119 121 122 121 121 122 123 123 124 125 126 126 123 121 118 113 113 115 115 117 113 110 107 109 107 111 112 118 121 122 121 119 117 116 115
93 95 99 103 105 106 106 108 114 117 117 119 123 125 126 124 124 125 126 125 125 121 122 121 119 119 118 115 113 107 108 109 110 112 113 116 120 119 119 114 115 116 115
93 94 95 97 99 100 98 98 99 105 111 114 118 122 126 127 130 131 131 129 128 125 120 116 117 119 119 113 111 108 109 110 115 113 116 119 124 123 123 120 118 115 115
91 93 93 92 94 97 96 95 95 96 98 98 104 112 121 123 126 129 131 132 129 125 120 118 114 114 118 119 115 113 111 111 111 113 118 120 123 124 120 121 119 115 116
83 85 86 86 87 89 90 90 88 89 91 93 94 99 106 112 118 125 130 131 130 128 124 123 119 114 113 114 116 113 113 114 115 112 122 122 119 122 124 119 120 118 117
80 81 81 80 81 82 83 84 84 83 84 85 89 92 99 103 110 115 123 126 128 128 123 123 123 118 115 114 111 112 112 114 116 119 118 119 119 120 119 120 122 121 120
75 73 74 75 77 78 79 79 80 77 77 76 78 85 90 98 103 107 111 117 122 124 118 119 119 117 116 116 114 114 113 114 114 114 115 116 116 115 118 119 120 118 120
66 66 65 67 68 69 70 71 72 72 70 68 69 74 81 87 91 96 103 109 112 114 110 113 116 115 115 115 116 119 117 117 117 115 118 114 114 113 118 122 119 119 119
60 61 60 59 60 61 63 64 64 65 66 63 60 66 68 74 79 85 90 95 104 108 104 105 109 111 114 116 116 117 116 116 117 117 114 114 114 117 115 119 120 120 119
53 54 54 53 54 55 56 57 58 59 59 59 57 58 61 65 71 76 78 88 94 99 97 99 102 103 109 114 113 115 115 116 114 113 114 115 116 115 117 118 120 122 120
49 49 49 49 49 50 51 52 52 52 52 53 53 54 54 58 63 67 73 79 82 85 89 91 96 100 107 108 108 109 110 112 112 112 115 115 115 116 119 118 121 123 124
47 45 45 46 46 46 47 48 48 49 49 49 50 50 52 57 61 66 71 73 75 78 83 88 92 98 102 104 103 103 104 105 106 107 108 109 113 115 117 120 122 120 119
44 44 43 43 44 44 43 44 46 47 47 48 48 49 51 55 59 62 65 70 73 75 79 84 87 86 89 93 96 97 97 96 97 99 100 103 108 112 115 116 116 115 112
43 41 40 41 41 41 42 42 42 43 45 46 46 47 48 51 55 59 63 67 69 73 75 77 80 80 82 85 88 88 88 91 92 92 92 94 98 104 107 108 108 107 103
40 40 39 37 38 40 40 40 41 42 43 44 45 46 46 48 52 56 60 64 67 70 72 74 76 78 78 79 82 84 86 86 87 88 89 92 95 97 98 98 95 94 93
38 37 37 36 36 35 37 38 39 39 39 40 42 44 44 45 48 51 55 59 63 66 68 70 73 75 77 77 78 80 82 83 85 87 89 90 91 90 88 89 89 89 88

GFSGL_250_spd_009.txt.gz
Wind_Speed
127 129 131 132 135 133 131 130 133 124 125 122 128 125 126 123 123 124 121 120 117 115 114 113 112 112 108 106 104 102 101 98 98 97 95 96 96 96 97 96 95 96 96
138 140 141 141 142 135 135 135 133 132 130 129 125 127 127 133 127 126 126 125 124 121 121 121 120 120 118 116 112 112 112 109 108 106 106 104 103 103 104 104 103 103 102
151 149 152 151 140 136 133 134 134 134 131 130 127 129 128 128 129 129 128 128 129 134 129 127 127 126 125 124 121 119 120 120 119 116 114 114 114 112 112 111 110 111 109
140 140 137 134 129 129 129 130 131 132 132 132 131 129 127 128 128 130 127 127 128 128 130 137 132 130 130 131 129 128 128 128 127 124 126 123 121 119 117 117 117 116 115
124 128 127 127 130 133 134 133 130 128 128 130 129 128 126 125 127 127 127 128 125 122 122 121 127 134 134 132 132 134 136 134 132 130 126 127 125 126 126 124 122 122 121
117 118 121 124 126 128 131 132 133 134 134 132 130 129 126 123 124 124 124 125 120 121 120 121 126 128 126 121 122 129 128 128 132 130 117 122 120 128 133 133 131 127 126
111 111 111 115 121 125 129 132 134 134 133 135 134 131 126 124 124 123 125 123 124 121 119 124 123 126 131 126 123 118 120 123 125 121 118 110 108 115 121 126 131 129 128
100 103 106 110 115 118 121 126 130 131 130 130 131 131 129 124 123 123 123 121 118 117 115 114 115 115 119 119 121 123 122 121 122 121 123 115 113 111 114 117 121 122 119
96 98 102 104 106 110 114 121 123 124 127 128 127 128 128 126 129 129 128 126 125 120 119 120 116 114 116 119 120 121 120 118 118 119 120 116 114 111 113 113 110 115 117
94 93 96 101 104 105 107 110 115 120 123 126 126 125 123 120 125 127 129 125 123 123 124 121 118 116 119 115 118 115 109 110 116 118 117 115 110 108 113 113 114 114 117
91 92 94 96 98 100 103 106 108 112 113 114 117 119 123 122 121 123 124 122 119 122 122 126 123 122 117 120 119 118 111 115 113 114 113 115 111 110 111 114 115 115 116
85 86 88 90 92 94 96 98 99 102 106 110 113 112 113 115 118 121 122 122 120 116 118 122 125 127 124 120 117 114 114 115 107 108 110 113 112 112 112 110 114 115 115
89 89 89 89 90 90 91 93 94 96 96 98 102 105 109 112 114 117 120 121 120 118 116 119 124 123 123 121 119 120 119 119 112 113 112 119 120 118 113 110 111 110 109
89 90 90 89 90 89 88 89 90 93 94 96 98 97 98 100 106 112 116 121 123 117 116 118 121 121 120 120 118 117 114 114 114 114 112 114 114 113 114 114 113 112 112
84 84 83 82 80 79 81 83 83 84 84 86 89 91 94 95 100 104 106 110 118 123 117 115 116 116 117 118 119 119 118 114 113 113 113 114 111 108 108 114 114 111 112
79 80 78 76 75 76 76 78 79 79 78 78 80 80 84 85 90 95 101 106 108 113 109 109 110 112 113 117 117 118 117 113 112 110 112 112 112 110 108 107 110 113 114
72 73 72 71 71 71 69 68 69 73 71 71 71 72 75 78 80 84 92 98 102 106 101 103 103 107 108 112 114 117 115 113 111 112 112 114 112 111 109 111 109 110 108
66 66 66 64 66 66 64 63 62 64 66 61 63 65 67 70 72 75 82 88 92 96 94 97 98 103 103 105 109 112 110 108 110 112 113 109 109 109 109 108 109 111 108
62 60 59 58 57 59 60 59 59 58 59 60 58 60 62 62 64 69 75 80 83 85 89 89 91 97 97 98 102 106 106 105 107 110 109 107 107 107 105 106 107 108 107
57 54 53 54 53 52 52 54 55 55 54 53 54 56 59 60 61 63 67 71 75 79 79 80 85 92 90 92 100 102 101 101 102 103 101 102 103 106 105 107 106 105 107
54 51 50 49 49 49 49 49 50 52 52 50 49 53 55 55 58 61 63 66 69 71 72 76 82 85 85 88 90 92 94 97 99 99 97 95 100 104 106 105 106 107 108
52 50 48 47 47 45 45 45 46 48 49 49 48 48 51 52 53 56 60 62 63 65 70 73 76 76 77 80 83 85 87 90 92 93 95 95 95 98 101 104 104 104 102
50 48 48 46 43 43 44 42 43 44 45 46 47 47 47 48 50 52 54 58 60 62 66 70 73 73 72 72 74 78 81 83 86 88 89 92 94 95 99 100 101 100 101
48 46 44 44 44 41 41 43 43 43 43 44 45 46 46 47 48 49 51 53 56 59 63 66 68 69 67 69 73 76 78 80 82 83 84 86 89 91 95 95 93 94 97
43 43 43 44 44 43 41 40 41 42 42 42 43 45 46 46 46 48 49 51 52 55 59 62 65 66 68 70 72 73 75 77 78 79 80 83 85 87 90 89 90 92 93
40 41 42 42 42 42 42 41 39 39 40 41 41 42 43 45 46 46 48 50 52 54 56 58 62 64 66 67 69 71 72 74 74 75 78 79 81 84 87 89 89 88 89

GFSGL_250_spd_015.txt.gz
Wind_Speed
127 127 127 127 129 128 127 128 125 130 131 134 135 132 130 129 129 128 126 126 124 122 122 120 118 117 114 114 113 110 108 108 106 104 100 106 105 104 104 101 96 95 93
128 131 135 140 135 141 142 141 140 134 132 135 134 138 142 139 140 138 133 134 131 131 130 128 126 126 125 125 123 121 117 116 115 114 113 109 109 113 112 112 108 102 100
127 124 127 129 138 143 143 148 151 149 150 140 140 140 138 145 150 151 147 147 142 139 136 138 132 131 131 130 129 130 128 127 123 118 117 118 115 116 120 121 118 112 109
121 121 123 125 128 129 133 137 142 144 150 149 142 144 146 145 145 148 155 154 150 150 147 140 139 138 138 138 138 136 137 134 132 132 132 123 120 121 123 127 125 123 122
116 118 119 119 121 123 124 125 128 133 135 135 138 141 149 153 148 156 154 158 157 150 157 160 159 151 151 152 147 145 147 144 144 149 150 142 130 130 129 133 133 132 132
110 112 114 116 119 122 124 126 128 129 128 129 129 130 130 131 134 137 141 156 161 162 158 145 149 153 153 156 151 145 144 143 136 134 135 135 135 130 134 135 135 135 135
101 103 106 107 109 112 114 116 118 120 122 125 128 128 126 126 130 132 133 132 132 135 133 132 128 125 125 125 127 128 127 126 125 123 119 121 119 118 124 129 132 131 133
99 98 100 101 102 103 105 107 109 111 113 115 117 119 120 119 124 126 126 127 126 124 125 126 125 123 120 120 122 123 123 121 118 117 115 111 112 111 112 116 119 126 127
92 92 93 93 93 94 95 97 100 100 100 102 105 108 111 110 117 121 123 122 120 119 119 118 115 114 115 120 120 114 113 110 115 117 114 114 113 113 113 113 111 115 112
90 91 92 92 92 92 93 96 95 94 93 95 97 101 103 104 110 113 115 115 114 111 110 110 110 109 113 114 114 112 110 102 109 109 109 111 114 113 111 108 109 109 108
88 89 89 90 90 92 93 93 94 94 95 97 97 99 100 101 102 106 108 108 107 106 104 103 105 107 106 108 110 107 100 103 105 107 103 101 106 108 105 104 107 108 109
84 84 83 84 88 87 87 89 90 93 94 95 95 96 98 100 101 102 104 104 103 101 100 97 96 102 103 101 101 101 98 99 103 99 100 96 97 101 105 105 105 105 107
84 83 83 84 83 83 82 83 84 85 86 89 90 92 96 98 100 101 100 100 99 98 98 96 93 92 96 98 98 95 98 100 97 95 93 91 97 104 105 100 104 106 106
84 83 84 82 82 81 81 81 81 81 82 83 83 85 88 92 94 94 95 96 95 93 94 96 93 92 91 93 95 93 91 94 96 94 92 95 97 100 99 101 101 102 103
79 80 79 78 76 77 78 77 76 76 76 77 77 78 78 82 83 82 83 85 85 87 88 92 94 92 91 91 93 93 90 87 89 92 93 96 98 97 96 99 102 104 104
77 78 78 76 76 76 74 75 75 72 73 72 72 72 74 74 75 75 74 74 75 76 78 82 85 86 86 90 92 92 92 89 83 86 91 93 95 97 98 95 98 100 105
75 73 73 71 71 70 70 69 70 72 67 66 66 67 65 67 68 67 68 67 66 66 69 74 77 79 82 84 85 84 85 86 85 85 86 87 90 94 97 95 95 95 99
71 68 67 67 67 66 64 63 64 64 66 66 61 62 57 57 60 60 60 60 61 62 63 65 69 72 74 77 79 79 81 81 79 82 85 85 85 86 92 94 96 96 97
68 67 66 63 62 61 60 59 60 60 59 59 62 64 57 49 55 57 54 54 54 56 59 60 61 64 68 71 74 76 78 79 78 75 77 80 84 86 87 90 93 95 96
66 64 63 62 60 59 58 57 57 57 57 56 57 59 63 54 51 53 55 52 52 52 53 55 56 59 62 64 65 67 71 75 76 75 72 73 79 86 88 87 90 92 94
63 62 61 60 59 58 57 55 54 55 54 54 54 54 56 59 53 50 51 51 49 50 50 49 52 54 55 56 57 59 63 66 69 71 71 71 74 79 85 88 89 88 89
61 60 59 57 56 55 54 52 51 50 51 52 51 51 50 54 53 49 48 49 48 48 48 47 47 49 51 52 52 55 58 61 62 65 68 69 71 75 79 84 87 89 90
58 57 56 55 54 53 51 50 49 47 46 47 47 45 45 48 53 50 45 45 47 45 45 45 45 45 47 49 50 51 52 55 57 59 61 64 68 71 74 78 82 86 89
55 53 52 51 51 50 48 47 45 43 44 44 44 43 41 43 47 50 46 43 42 43 44 43 43 44 44 45 47 47 48 51 54 56 57 60 63 67 70 73 77 82 86
51 49 48 48 48 46 45 44 43 42 42 43 43 42 42 41 42 46 45 44 40 40 41 41 40 41 42 42 44 45 46 48 50 53 54 56 59 61 65 69 73 76 80
47 47 46 44 43 43 43 42 41 41 40 41 41 40 40 40 39 40 42 39 40 38 38 39 38 38 39 40 41 43 43 44 47 50 52 55 56 58 61 64 67 71 74

GFSGL_250_spd_021.txt.gz
Wind_Speed
117 117 116 115 114 113 112 110 111 115 119 124 133 145 148 146 145 143 142 141 141 139 138 136 135 135 135 134 133 132 130 127 119 114 116 117 114 111 110 109 107 102 100
115 114 113 111 110 109 108 108 109 110 112 116 122 129 137 152 155 153 152 146 146 146 146 147 144 142 141 142 141 137 138 136 128 123 122 120 122 122 121 118 116 113 112
108 104 103 101 102 101 101 101 101 103 104 107 112 118 124 129 135 147 157 159 157 156 155 152 150 151 149 146 146 145 144 142 140 134 130 130 128 128 127 125 123 123 123
98 96 95 95 95 95 95 95 97 98 99 101 104 107 112 117 122 127 132 139 150 158 165 164 160 159 157 156 156 154 152 150 148 143 138 138 136 136 134 132 131 134 131
93 90 89 89 89 90 90 92 93 94 95 97 99 103 107 110 114 118 121 125 130 135 142 150 162 168 166 165 165 165 162 159 157 154 149 147 145 143 142 143 140 139 140
91 90 89 89 89 89 90 92 92 93 94 95 97 98 100 104 107 111 114 117 120 124 128 133 137 143 150 158 170 173 168 166 165 166 162 158 154 154 152 151 150 148 146
95 94 94 93 93 92 93 93 92 91 91 92 93 95 97 101 104 106 107 107 109 114 119 123 127 131 135 138 140 145 152 158 162 166 165 165 163 162 161 158 157 152 148
95 95 93 92 92 92 91 91 90 89 89 89 90 91 91 94 96 97 99 102 104 107 109 111 113 118 123 128 131 133 135 137 140 142 141 140 151 162 167 167 167 167 164
96 94 93 92 91 91 91 91 90 89 89 89 89 91 89 91 93 94 94 94 97 101 102 103 105 108 112 116 117 119 120 125 131 134 133 131 136 137 139 143 145 164 165
94 93 92 91 90 90 89 90 88 86 84 85 87 87 86 86 89 88 88 89 91 94 98 100 102 104 107 108 109 109 109 114 116 116 117 118 120 125 133 135 132 130 129
93 91 90 89 88 88 87 86 86 85 83 83 84 85 84 83 84 82 82 83 84 87 90 93 94 97 100 103 106 107 107 109 106 103 103 103 106 111 117 122 126 129 124
91 90 88 86 85 85 85 84 83 82 80 83 81 82 83 83 82 81 81 82 83 83 86 87 89 91 92 92 96 99 101 102 104 105 102 102 100 99 104 109 113 119 120
86 85 84 84 84 83 83 82 81 80 76 77 74 77 79 79 78 77 77 77 79 78 80 83 86 87 88 89 90 89 89 92 95 98 99 100 100 101 102 99 100 104 108
83 82 81 81 82 81 79 77 76 75 74 73 73 75 77 77 75 76 76 76 75 74 76 80 81 81 82 82 83 82 82 85 88 89 90 93 96 98 100 100 96 96 99
81 80 79 79 77 77 77 77 75 75 71 71 73 73 73 75 73 73 73 72 70 69 71 73 76 76 77 79 79 78 78 80 81 79 77 83 90 95 94 96 95 95 93
79 77 77 76 75 74 74 76 76 73 71 69 70 70 72 71 72 71 70 68 66 66 68 69 70 71 71 72 69 71 72 73 78 75 70 75 81 84 89 90 89 92 92
76 74 75 73 72 72 72 73 76 78 68 67 68 67 67 68 69 67 66 67 66 66 66 65 64 65 66 65 63 64 67 67 69 71 69 69 73 76 79 82 86 88 91
74 73 73 73 73 73 73 72 73 73 73 68 61 64 63 63 62 62 61 62 65 64 63 62 61 61 62 62 59 59 60 61 62 64 65 66 67 69 71 75 80 86 89
74 74 74 74 74 74 74 73 71 67 66 65 65 60 58 57 57 55 55 57 60 62 60 56 56 57 60 59 56 58 57 57 58 59 60 61 62 63 66 69 74 81 85
76 75 74 75 74 74 72 70 66 64 62 60 61 61 58 55 53 52 51 52 56 58 58 55 52 51 54 54 52 54 56 57 56 56 56 57 58 59 62 65 68 75 79
74 73 72 69 70 68 65 64 62 60 58 57 58 59 58 54 52 54 52 53 55 54 52 52 52 50 51 51 49 50 53 53 54 55 55 56 55 57 59 61 65 69 73
71 70 67 65 64 62 61 59 57 56 57 57 55 54 54 54 52 51 53 55 53 51 50 50 50 49 46 47 46 47 50 50 51 52 53 54 54 55 57 59 61 64 67
68 66 62 61 59 57 56 55 54 54 55 55 54 52 49 50 51 52 52 52 50 49 48 48 49 48 46 45 43 44 46 47 48 50 50 52 52 53 55 56 58 59 62
63 61 58 55 54 53 52 52 52 52 51 50 49 48 48 49 49 50 52 50 47 47 46 44 45 45 44 44 43 42 43 45 47 48 48 49 49 50 52 54 55 57 59
59 57 56 52 51 50 49 49 49 49 48 46 45 45 45 46 47 48 47 47 48 45 44 43 42 41 41 41 40 40 41 42 44 46 46 47 48 48 50 52 53 54 57
56 55 52 50 49 48 46 46 45 44 43 43 43 43 44 45 46 44 44 45 47 45 43 41 41 39 40 40 40 39 39 40 41 43 44 45 46 46 48 50 51 52 54

GFSGL_250_spd_024.txt.gz
Wind_Speed
124 118 111 108 102 100 97 97 97 98 101 103 105 108 110 112 116 121 124 133 138 142 145 148 151 150 147 145 143 140 136 133 127 121 121 120 118 117 115 114 111 110 109
118 111 107 101 97 95 94 93 94 94 95 97 98 99 101 103 107 111 116 124 129 137 144 147 148 148 153 153 151 149 146 143 135 130 131 130 130 130 128 126 124 121 118
111 106 100 94 92 92 92 91 92 92 93 93 95 95 95 97 99 101 106 111 116 123 129 135 142 143 147 150 153 154 155 151 148 139 134 137 137 136 136 135 134 131 130
109 102 97 95 93 92 93 93 92 92 93 93 94 95 96 96 97 98 99 101 105 110 115 120 126 133 137 139 139 142 151 150 152 148 143 143 142 142 144 142 141 141 138
100 97 97 96 95 93 93 92 92 91 91 92 94 96 97 98 99 98 97 97 98 101 105 110 115 118 123 126 127 129 129 134 140 145 146 147 148 148 148 149 149 150 145
102 99 96 94 93 93 92 92 92 90 90 90 91 91 92 94 94 96 96 97 98 98 100 102 105 108 112 116 119 120 124 126 128 130 136 142 150 154 156 155 153 154 152
102 100 98 96 96 94 93 92 91 90 90 90 90 90 91 92 92 92 92 91 92 93 95 98 101 104 105 106 109 113 118 120 121 123 121 126 131 148 154 157 159 159 156
104 102 100 98 97 96 94 92 90 88 88 89 89 89 89 91 91 92 91 90 90 91 92 94 95 97 99 100 103 106 110 112 114 116 116 120 123 128 133 139 148 162 162
105 102 100 97 95 94 92 91 91 89 87 87 87 88 87 89 88 89 86 84 85 88 90 93 94 95 98 99 99 100 101 105 107 109 109 109 115 121 127 128 128 134 131
102 100 98 97 95 93 91 89 88 88 88 87 86 86 85 84 85 83 81 81 82 82 85 87 87 88 92 96 97 99 102 103 101 100 101 103 107 111 116 119 122 121 120
102 101 100 97 95 93 91 89 87 86 85 84 84 84 86 86 86 83 82 80 80 81 84 86 86 85 85 87 91 94 96 99 100 102 103 103 102 103 106 110 113 113 113
101 100 97 94 92 90 87 86 85 83 81 82 81 82 84 85 83 82 80 79 78 76 79 81 82 82 82 83 85 86 89 92 94 97 100 101 101 101 103 105 105 104 103
99 96 93 91 88 85 83 82 82 82 80 79 79 80 81 79 77 75 76 75 73 71 72 76 77 76 78 79 81 82 85 87 89 91 92 95 97 99 100 100 101 99 97
95 92 89 87 85 84 83 82 81 80 78 76 72 73 74 74 72 71 71 72 70 68 68 71 73 75 76 77 78 79 79 80 81 83 85 89 93 95 96 97 96 95 92
93 90 87 84 84 84 82 82 80 78 73 70 69 69 70 71 69 67 68 68 66 66 66 66 68 70 72 74 75 77 78 77 77 78 80 82 85 86 90 92 91 91 90
90 85 83 83 82 82 81 80 76 74 73 71 68 67 67 67 68 68 69 67 66 64 64 64 66 68 69 70 71 73 74 73 74 76 79 77 78 83 84 82 82 83 87
84 83 83 82 80 77 74 73 74 75 71 71 66 65 65 67 67 66 68 68 65 64 62 63 64 66 66 66 67 68 69 68 68 69 74 73 72 74 77 76 73 77 82
81 82 81 80 77 75 73 71 71 74 76 73 63 65 67 66 66 65 65 64 61 60 60 62 63 64 63 62 61 62 63 63 62 63 66 69 68 68 69 71 68 69 75
80 80 78 77 76 75 73 72 72 74 75 75 73 68 68 65 63 62 61 60 58 57 58 58 61 63 61 58 58 59 59 60 59 58 60 64 63 63 63 64 66 67 68
77 77 76 76 75 73 73 71 72 74 73 72 71 69 65 63 61 58 57 55 54 56 58 58 60 57 54 55 54 54 55 57 56 56 58 59 61 60 60 60 62 63 64
76 75 74 75 74 73 72 71 71 71 69 69 66 65 63 61 59 56 53 52 54 55 55 56 55 51 50 52 52 51 52 53 52 53 56 57 58 59 58 58 59 60 61
76 75 73 73 73 71 70 69 68 67 65 64 62 60 60 58 56 55 53 53 54 53 54 52 49 46 45 48 49 48 48 48 46 48 51 53 54 55 55 56 57 59 58
74 73 73 72 70 67 64 64 64 62 60 59 58 57 56 56 54 52 52 53 52 52 51 49 46 45 44 46 45 44 43 43 44 45 47 50 51 52 53 53 54 55 55
72 71 69 67 64 62 62 61 60 58 57 57 56 55 54 53 52 50 51 51 50 49 48 46 44 43 43 43 43 43 42 41 41 43 45 47 48 49 50 50 51 52 53
69 67 65 62 60 59 60 59 56 54 54 54 54 53 52 51 49 48 48 47 47 45 43 44 42 41 42 43 43 41 40 40 40 41 41 42 44 46 48 49 49 50 50
64 63 62 59 57 56 57 55 53 52 51 50 51 50 49 48 46 46 46 46 45 43 42 42 40 39 39 41 42 41 39 39 39 39 39 40 41 42 43 45 46 46 48

GFSGL_250_spd_027.txt.gz
Wind_Speed
113 117 121 130 134 133 132 115 103 98 95 92 92 93 93 93 93 95 99 102 103 105 107 110 115 120 124 132 135 136 136 132 127 136 138 136 134 133 132 128 124 120 113
123 126 132 135 140 136 119 105 99 94 93 92 93 93 94 94 94 94 95 98 101 103 105 107 109 111 116 122 126 132 135 133 129 130 139 140 143 141 138 137 134 129 124
132 135 140 145 135 133 108 101 96 95 95 94 94 93 94 94 95 96 97 99 101 102 103 103 106 107 109 113 116 122 126 127 126 121 128 136 144 148 147 144 141 139 135
138 141 146 140 138 114 108 101 99 97 95 94 94 94 94 95 96 97 97 98 99 100 101 102 102 103 103 105 108 111 114 118 120 117 112 125 136 144 149 151 150 148 144
144 147 147 141 119 111 103 101 98 94 93 91 91 91 92 92 93 93 95 97 98 100 100 100 99 98 99 101 102 104 106 108 112 114 112 112 123 132 142 145 150 156 151
150 147 147 122 112 104 102 98 95 93 92 90 88 88 88 88 88 90 89 91 93 93 95 97 97 96 97 97 98 100 102 104 104 104 105 107 112 115 122 132 139 138 148
151 146 123 113 107 107 102 99 96 93 91 89 87 88 87 86 86 86 87 88 88 90 91 92 92 93 93 93 95 96 97 98 101 102 100 101 103 110 113 117 123 127 127
148 126 121 116 112 106 103 99 95 92 90 89 88 87 86 86 84 83 83 82 82 84 85 86 88 90 91 92 92 92 93 94 94 94 96 101 101 106 106 108 113 115 117
131 129 119 113 109 105 100 97 93 91 89 87 87 87 85 84 83 82 81 80 80 81 82 84 86 87 89 91 90 90 93 96 93 93 93 95 96 100 104 104 106 104 109
128 118 115 112 106 100 97 94 91 89 89 88 87 87 86 84 84 83 80 78 77 77 79 82 83 82 82 85 86 86 88 93 90 91 93 95 98 98 101 100 100 100 102
123 118 113 107 101 99 96 94 92 90 88 86 86 85 84 82 83 81 79 76 75 77 79 80 81 78 79 80 81 81 83 86 88 89 91 93 95 96 99 100 98 96 95
117 112 107 103 101 98 96 93 91 89 87 85 82 80 79 80 79 77 76 75 74 73 76 76 76 75 75 74 76 76 78 80 84 88 89 91 91 92 93 95 96 93 92
111 109 107 104 101 98 95 93 92 88 83 81 78 76 77 77 78 75 74 71 68 67 69 72 72 73 73 74 75 76 75 75 77 81 84 86 88 90 91 90 88 87 87
110 108 105 101 98 95 93 92 88 86 83 80 77 75 75 75 74 74 73 71 67 65 66 68 69 70 70 71 73 73 73 74 74 76 78 80 82 83 86 85 86 85 84
106 102 97 94 93 93 90 86 84 83 82 79 76 72 70 70 71 71 71 68 64 63 64 66 66 65 66 67 69 71 72 71 71 72 74 75 76 78 81 80 81 82 83
97 94 92 91 89 87 84 83 82 82 80 76 72 69 67 66 68 68 69 64 59 61 61 62 63 63 64 64 65 67 67 68 69 70 71 71 71 73 74 77 78 80 81
90 90 90 86 82 80 80 80 82 80 76 73 70 68 65 67 67 66 67 63 59 59 58 58 59 61 61 62 63 63 64 63 63 64 65 66 67 69 71 72 73 75 77
88 86 84 81 80 80 79 78 77 76 75 72 68 67 66 67 65 66 66 63 60 59 57 57 57 58 60 61 60 60 60 59 58 58 60 62 60 61 65 66 68 70 71
85 83 81 82 81 79 76 75 75 75 75 73 72 69 67 65 63 63 63 61 59 56 55 54 55 57 58 57 58 57 56 54 53 55 56 56 56 56 59 60 61 63 65
80 80 81 80 79 77 76 74 73 73 72 72 71 70 65 63 60 60 59 58 56 54 53 52 54 54 55 56 55 54 53 53 53 53 53 53 53 53 55 57 56 58 58
78 78 77 78 77 75 74 74 73 72 71 70 70 67 64 61 59 57 56 55 54 52 52 53 52 52 53 53 52 49 51 51 51 50 49 49 50 51 53 54 55 55 55
77 77 77 76 74 73 73 72 73 71 69 68 67 63 62 60 58 55 54 52 52 51 52 51 50 51 50 49 49 48 48 48 48 49 48 48 48 48 50 52 54 54 54
76 77 76 74 72 72 73 72 71 70 66 65 63 61 58 56 55 54 53 52 50 52 51 50 48 47 46 45 46 45 44 43 43 46 46 46 46 46 47 49 51 51 52
75 74 74 72 71 71 70 69 67 65 63 62 58 57 54 53 52 51 51 50 50 50 50 47 45 44 42 41 41 41 41 41 41 41 42 42 43 44 46 47 48 48 48
72 72 71 70 68 66 65 64 62 60 60 57 54 52 51 49 49 49 48 48 47 47 47 46 43 41 41 40 39 38 38 39 39 40 40 40 41 41 43 45 46 46 46
69 68 67 65 63 62 61 60 58 56 55 53 51 50 48 47 46 47 46 45 45 45 45 43 42 41 40 39 38 38 38 38 38 37 37 38 39 39 41 42 43 43 43

GFSGL_250_spd_030.txt.gz
Wind_Speed
101 105 94 92 100 108 111 117 125 126 120 119 107 99 98 96 94 92 92 92 94 96 98 100 103 105 107 109 109 110 111 113 112 117 127 134 138 140 140 140 137 131 131
94 94 96 101 107 112 117 120 133 128 128 111 104 98 94 93 93 94 93 94 96 97 98 100 103 105 107 109 110 110 110 110 110 110 116 123 132 143 141 143 144 145 138
106 102 104 111 116 120 126 134 135 137 128 106 104 98 96 97 95 92 92 93 94 95 96 97 99 101 104 106 106 107 108 108 107 106 108 113 118 128 139 140 142 144 146
104 110 113 118 125 133 139 145 145 128 112 108 101 99 98 95 91 91 91 92 93 94 95 95 96 97 98 99 100 101 103 103 103 102 100 104 111 116 121 130 135 137 142
113 118 125 131 138 141 143 152 125 114 109 102 101 100 95 91 89 87 87 88 89 90 90 92 94 95 96 96 95 96 96 97 98 99 98 98 103 107 111 116 122 132 133
122 129 133 136 142 145 141 135 116 113 108 104 99 96 91 88 86 85 84 84 84 85 88 89 90 92 92 92 92 92 94 94 95 95 94 93 97 101 106 109 109 117 126
131 137 144 144 143 154 144 129 122 115 108 101 99 92 89 87 86 83 82 81 81 83 83 84 85 86 86 86 88 91 91 92 92 92 90 92 92 96 100 102 105 106 111
141 146 146 148 152 140 141 128 119 112 106 100 94 90 87 86 84 83 82 81 80 79 79 80 80 82 83 83 85 88 89 90 90 88 87 91 92 95 94 96 96 98 104
149 151 151 155 152 143 132 122 119 112 102 98 93 89 88 86 83 82 81 79 79 79 79 78 78 79 80 80 81 83 85 88 88 88 87 89 91 92 93 91 93 92 97
155 154 158 154 145 128 125 124 114 105 101 97 92 91 89 87 84 83 82 78 77 75 75 74 75 76 77 79 78 78 79 83 84 85 84 86 87 88 90 90 91 92 92
159 160 158 144 129 127 124 115 109 103 99 94 93 92 89 85 84 83 82 77 74 72 73 74 75 75 76 76 75 75 76 78 80 80 82 84 84 85 87 86 86 88 90
162 155 144 133 131 124 117 110 105 101 97 95 93 90 87 86 83 80 77 75 73 71 72 73 72 72 73 72 70 69 69 70 71 74 76 77 78 81 83 84 84 84 85
158 148 135 129 124 118 111 106 103 100 96 93 91 89 86 83 80 78 75 74 72 69 68 69 68 69 69 71 70 69 70 70 70 72 74 75 75 75 77 77 79 82 83
148 138 130 126 118 113 108 104 100 97 93 91 90 87 83 81 78 77 76 73 69 66 65 67 66 66 68 71 72 71 70 70 70 71 72 74 75 75 75 74 75 76 77
139 132 125 118 113 108 103 98 95 93 90 87 84 82 81 80 78 76 73 70 68 67 67 66 66 65 66 67 69 71 71 71 70 70 70 71 72 73 73 73 72 72 73
131 123 117 112 108 102 97 94 91 90 87 83 80 79 78 75 72 70 69 69 68 66 65 66 65 64 64 64 64 66 67 69 69 69 68 67 68 69 69 68 67 69 71
122 116 111 106 101 96 93 89 88 87 85 81 78 76 73 73 70 69 68 69 67 64 64 65 64 62 60 60 61 61 62 63 63 63 64 62 62 64 64 64 64 65 68
114 109 103 98 94 91 87 85 87 87 85 81 76 72 69 70 70 68 68 69 66 63 63 61 61 60 60 59 59 59 57 56 56 57 57 57 57 58 59 60 61 62 63
105 99 95 91 88 86 82 82 84 84 82 79 76 72 71 69 68 66 67 67 65 62 59 59 58 57 57 57 55 54 54 54 53 54 53 53 54 55 57 57 58 59 60
98 93 89 86 84 80 79 81 81 80 80 79 77 74 70 69 67 66 65 65 62 58 57 56 56 55 55 53 51 51 51 51 51 52 52 52 51 50 52 54 54 55 55
93 89 85 83 77 76 78 79 79 78 78 78 76 73 70 68 67 65 62 62 60 56 56 54 53 54 53 51 49 48 48 48 48 48 49 49 49 48 48 50 50 51 52
89 86 83 78 77 78 78 78 77 77 76 76 74 72 69 68 67 63 60 58 57 56 54 53 52 51 50 48 47 46 46 46 46 46 45 46 46 45 45 46 47 48 49
85 83 79 77 77 77 77 77 76 75 74 74 72 70 67 66 65 60 57 56 53 53 52 50 49 48 47 46 45 45 43 43 43 44 44 44 44 44 45 45 46 46 47
84 81 79 78 76 76 76 75 74 73 73 71 67 64 63 62 59 56 54 53 51 50 50 49 47 45 44 44 43 43 42 42 41 40 41 41 41 41 42 43 44 44 44
82 80 78 76 74 73 72 71 71 69 68 65 63 60 58 57 55 53 51 50 49 48 47 47 45 43 42 41 40 40 40 40 40 40 40 40 39 39 40 41 42 42 42
80 77 75 74 72 70 68 68 67 65 64 61 60 57 56 54 51 50 49 48 47 45 45 45 44 41 39 38 38 39 39 39 38 38 39 39 39 39 38 38 38 39 39

GFSGL_250_spd_033.txt.gz
Wind_Speed
96 104 111 114 112 111 111 104 106 105 105 107 114 120 124 125 122 116 113 103 97 97 101 101 102 102 103 105 105 104 103 102 98 99 105 110 114 119 124 127 127 127 126
102 104 101 104 109 113 116 113 112 107 105 116 125 129 133 128 117 114 105 102 99 99 101 102 101 100 100 100 100 101 101 101 98 95 101 104 107 112 115 119 120 122 125
109 106 106 111 112 110 111 115 112 112 119 128 129 138 131 126 110 105 101 99 98 100 99 99 98 95 94 94 94 94 96 96 95 92 91 97 101 104 107 112 116 119 119
103 107 107 109 111 112 113 115 120 126 127 132 138 136 131 116 109 104 99 98 97 97 94 93 92 92 91 91 91 93 93 92 92 90 88 91 94 98 100 103 108 114 117
102 109 109 107 116 115 117 117 121 128 134 139 139 133 123 112 109 104 100 97 95 93 90 90 89 89 89 89 89 91 90 90 90 89 87 87 90 94 95 98 98 107 111
112 111 113 113 113 118 119 125 130 138 143 145 136 127 116 111 107 103 100 96 92 90 88 88 88 87 86 86 87 87 88 88 89 89 86 85 85 87 89 91 91 96 102
118 117 117 116 120 120 126 138 140 145 145 145 140 126 116 110 105 101 97 93 89 87 85 85 84 83 82 83 83 84 85 86 87 87 85 85 84 84 84 84 85 89 94
120 120 120 121 123 131 139 145 147 150 150 152 138 125 116 110 105 100 95 90 86 85 82 80 79 79 80 79 79 82 84 85 86 86 83 84 85 84 84 83 83 83 87
123 122 125 126 132 141 144 149 152 155 153 149 132 125 116 109 104 98 92 89 85 82 80 79 77 79 79 77 75 77 79 81 81 82 81 81 81 83 85 83 84 82 84
127 128 131 136 143 150 154 156 155 158 149 137 130 122 113 108 102 97 91 87 84 80 79 78 76 76 75 74 73 73 74 77 78 79 79 78 77 78 80 80 82 83 84
131 133 138 143 149 157 160 159 159 154 144 133 127 118 112 107 101 94 89 85 82 80 77 75 75 74 72 73 74 73 72 74 78 77 78 78 74 74 75 76 77 79 83
137 141 149 154 158 161 161 164 159 144 137 130 121 115 110 104 98 91 86 82 79 77 76 75 75 74 74 74 73 71 70 69 70 72 73 73 71 70 69 69 72 75 79
144 153 157 159 160 163 164 155 141 137 132 123 116 112 106 99 94 90 84 81 79 77 78 79 76 73 70 70 69 67 67 68 68 69 70 71 71 70 70 67 68 70 71
153 158 161 165 165 164 157 140 138 133 123 118 114 108 102 96 92 86 82 78 77 79 79 76 74 71 69 67 67 67 66 67 68 68 69 69 69 69 68 64 65 65 67
161 164 166 165 161 153 138 138 132 123 117 114 109 103 97 92 89 84 79 77 77 79 78 73 68 67 68 67 66 65 66 66 67 67 69 70 69 68 65 61 61 62 64
164 166 166 164 148 139 133 131 121 117 113 108 103 97 92 88 86 82 79 76 74 76 73 70 67 65 66 65 64 63 63 64 65 65 66 68 69 68 66 61 59 60 63
165 167 160 143 140 133 126 118 115 110 105 100 95 91 88 85 82 81 80 76 72 72 71 67 65 64 64 64 63 61 60 60 61 61 63 64 64 65 63 61 59 59 61
162 144 138 137 132 123 119 111 106 102 97 92 89 87 85 81 79 78 76 73 71 70 69 66 64 65 63 62 61 59 57 57 55 56 57 58 59 60 59 58 57 57 57
141 140 135 127 122 116 109 103 98 94 89 86 84 84 81 79 79 77 74 72 70 69 67 64 63 64 62 59 59 57 56 54 53 53 53 53 53 54 54 55 55 54 57
137 135 124 120 112 106 101 95 91 86 83 81 81 80 79 78 76 74 71 69 68 69 66 63 60 62 61 58 57 56 54 52 52 51 51 51 51 50 51 51 52 54 54
127 123 115 109 103 98 94 90 85 81 79 78 79 80 79 76 75 73 70 67 68 69 66 62 58 59 59 58 56 55 52 50 49 49 50 50 50 49 47 49 49 50 52
118 111 105 100 95 92 89 86 83 80 78 78 79 79 78 75 74 72 70 67 66 67 63 60 57 56 57 56 54 53 49 47 47 47 48 48 48 47 46 45 46 47 47
108 102 97 95 93 91 88 85 82 80 79 78 77 76 74 72 70 69 67 65 63 63 60 58 55 54 54 54 53 50 46 45 44 45 46 45 45 44 44 43 42 42 44
101 97 93 91 90 88 86 84 81 80 78 76 74 72 71 69 67 64 62 61 60 58 57 55 52 51 51 51 51 48 45 43 42 42 43 43 43 43 42 42 42 42 42
96 94 92 89 86 84 82 81 79 77 75 72 71 69 68 66 63 61 59 57 55 55 54 52 50 49 48 48 48 46 43 42 42 41 40 40 41 42 40 39 40 41 42
93 92 88 84 81 81 80 79 76 74 71 69 67 66 65 63 60 57 54 52 51 51 51 50 48 46 45 45 45 44 41 40 41 41 40 39 39 40 40 38 39 39 39

GFSGL_250_spd_036.txt.gz
Wind_Speed
78 81 85 90 94 98 103 106 112 112 110 110 110 112 111 114 111 113 114 115 122 126 119 116 110 103 102 107 110 107 107 103 99 92 96 97 100 99 104 106 104 103 105
85 89 93 96 98 103 107 109 108 107 111 113 116 109 109 108 110 115 120 124 129 123 114 110 105 105 108 108 106 105 105 103 97 88 90 92 92 94 96 100 102 102 101
90 95 99 101 104 106 104 101 102 106 111 109 108 111 110 113 117 125 129 132 128 120 109 105 104 105 104 103 102 101 100 97 93 87 82 85 86 87 90 93 97 99 99
97 98 100 102 104 103 103 106 107 112 113 113 112 112 115 122 129 132 136 132 123 113 107 106 103 102 100 98 95 94 90 88 88 86 83 82 83 85 85 87 91 93 98
100 100 100 104 104 103 105 113 115 115 114 116 116 119 125 133 140 137 136 127 117 111 109 105 102 100 97 93 88 87 84 83 84 84 82 81 82 81 81 81 82 88 94
99 101 105 105 107 108 113 120 119 119 118 120 124 131 138 143 144 140 130 122 113 110 106 104 100 96 93 88 84 82 81 81 82 80 78 79 80 79 78 77 80 81 88
103 106 110 108 109 115 120 125 124 122 124 128 133 141 147 147 142 136 126 116 113 108 104 100 97 93 87 81 80 78 76 77 76 73 74 79 77 78 76 76 76 77 83
110 115 113 112 115 122 126 128 126 127 131 136 142 149 148 147 141 133 125 120 113 108 103 97 92 88 83 78 75 74 74 74 72 73 72 72 73 75 76 75 75 76 81
118 121 120 118 124 129 131 130 130 134 140 145 147 152 152 148 141 131 124 120 112 106 100 93 88 84 80 76 72 70 69 70 70 70 70 69 67 68 69 69 73 73 77
123 126 125 124 130 131 130 132 135 140 145 147 153 156 155 144 139 129 126 119 110 104 98 90 86 81 77 73 70 67 66 67 70 72 73 72 69 69 69 69 70 72 71
129 130 128 131 133 132 131 135 141 149 151 154 157 159 147 146 135 133 123 113 108 102 95 88 82 76 75 73 69 68 68 68 70 71 73 72 71 67 66 65 65 67 68
134 136 135 135 136 134 136 141 148 150 157 160 162 159 147 137 133 126 117 112 105 99 91 86 81 71 72 72 71 71 70 69 69 70 70 69 69 67 65 62 63 63 62
138 140 139 139 137 138 143 149 155 158 161 165 163 155 141 135 128 120 115 108 101 95 88 83 78 73 69 71 71 71 69 68 69 69 68 66 67 67 66 63 62 61 63
140 138 139 140 140 144 150 155 161 165 168 166 155 143 132 128 120 117 109 104 98 92 87 83 77 73 71 71 71 70 69 69 70 70 70 69 68 67 65 63 63 60 61
142 142 143 142 145 151 156 165 166 168 167 154 141 134 126 121 116 108 103 98 93 89 85 81 75 72 73 72 71 69 67 67 68 67 67 68 67 66 64 63 62 62 60
146 146 145 147 151 156 163 165 169 165 148 139 135 129 121 114 108 102 97 91 87 84 83 79 75 72 72 72 70 68 65 64 65 65 65 65 66 65 63 60 60 59 60
150 148 150 154 160 164 169 170 157 138 140 134 128 123 115 108 100 94 90 85 83 80 80 77 75 73 71 70 67 65 63 61 62 62 61 61 62 61 59 57 56 57 57
153 156 159 162 168 166 164 150 139 138 133 126 121 112 106 100 94 89 85 81 80 77 77 76 74 72 69 67 64 63 61 59 60 59 58 57 57 57 55 54 54 56 55
161 163 168 170 168 161 146 142 137 130 123 115 110 105 99 94 90 86 81 78 77 77 75 74 72 67 66 65 63 60 58 57 57 56 54 53 52 53 52 52 52 52 53
168 170 170 165 155 144 142 137 128 120 112 105 101 97 93 90 86 82 78 75 75 76 74 72 70 66 64 65 63 58 56 55 55 53 51 50 50 50 51 50 50 51 51
172 171 166 143 142 140 131 124 118 110 104 99 94 91 88 84 80 76 73 72 73 74 71 70 68 65 63 62 62 58 56 54 53 52 49 48 48 48 48 48 48 49 50
160 141 145 143 134 126 119 113 108 103 97 92 90 88 84 79 75 73 72 71 70 71 68 68 67 63 60 59 59 56 55 54 52 50 47 47 46 47 47 46 46 46 47
146 139 132 127 121 113 108 104 100 95 90 89 85 81 78 77 76 73 70 69 68 68 66 65 63 59 58 58 57 55 53 52 50 48 45 45 46 46 46 45 44 44 45
130 124 119 114 108 103 99 96 92 88 87 84 80 79 77 75 73 71 69 68 66 66 64 62 60 57 56 55 54 52 50 49 48 47 45 44 45 45 44 43 42 42 42
120 113 109 104 100 98 96 91 87 84 82 80 79 76 74 72 71 69 67 66 64 63 62 60 57 54 53 52 50 49 48 47 46 45 44 44 43 44 42 41 40 39 41
108 105 103 99 96 94 90 87 82 79 78 77 75 73 72 70 69 67 65 63 61 60 58 56 53 51 49 48 47 47 46 45 45 43 43 42 42 41 40 39 39 39 39

GFSGL_250_spd_042.txt.gz
Wind_Speed
61 62 63 65 68 69 72 74 76 76 79 84 88 91 94 98 101 104 105 108 108 107 109 112 120 122 118 119 119 118 118 115 112 108 107 106 105 106 107 110 108 106 104
62 65 68 69 70 72 73 75 79 84 87 88 89 91 97 103 106 107 106 106 107 110 113 118 124 122 121 121 119 120 120 117 113 106 105 103 102 102 102 99 99 98 94
68 69 70 71 73 76 78 80 83 85 86 89 95 99 102 103 103 104 106 106 110 116 119 124 124 122 121 123 123 123 119 116 111 109 104 101 97 97 93 90 89 90 88
69 71 73 75 76 78 81 84 86 88 92 97 100 102 103 102 105 106 108 112 116 119 123 122 123 123 125 126 125 122 119 115 113 108 101 98 91 88 86 82 80 81 81
72 75 77 79 81 84 87 88 89 91 95 97 99 104 109 111 111 113 116 118 121 123 124 123 126 127 128 129 125 122 116 113 111 103 97 93 88 81 79 77 70 70 76
78 81 83 84 85 88 91 94 97 98 100 102 105 110 110 114 114 117 122 124 125 127 127 127 130 133 132 128 123 120 115 113 106 98 92 86 82 75 71 70 67 64 68
85 85 87 89 91 94 96 96 99 103 105 108 113 117 117 118 119 123 126 127 129 129 129 131 134 136 130 126 123 118 116 112 102 95 87 84 76 71 64 64 63 63 63
86 90 93 97 96 98 103 104 107 108 111 114 115 121 122 121 123 127 129 130 131 133 132 136 139 133 128 126 120 119 113 106 98 93 85 80 74 67 61 57 57 60 61
91 95 99 103 104 106 106 106 110 114 119 120 120 126 128 125 128 133 133 135 136 137 136 144 135 129 129 123 119 117 108 101 98 91 85 78 73 68 59 55 56 56 57
97 99 103 106 110 110 111 113 117 122 123 123 126 133 131 132 133 135 136 135 139 139 145 136 133 131 126 122 119 113 103 97 95 90 85 79 74 71 62 55 52 53 53
104 108 110 109 110 113 116 118 123 126 128 125 134 133 133 133 138 137 138 140 142 143 139 139 135 130 125 123 117 108 100 93 90 85 81 78 74 71 65 59 54 53 54
110 111 112 111 111 114 119 123 125 129 130 132 134 135 134 139 140 140 143 146 145 140 142 140 134 126 125 121 112 106 99 92 85 81 79 77 73 70 65 59 57 55 55
113 117 117 114 115 119 123 125 128 130 133 140 139 136 138 140 142 146 147 146 142 143 139 134 126 125 120 114 110 104 95 89 84 79 78 77 72 68 64 60 60 58 58
118 118 119 118 120 123 128 129 131 134 142 141 139 139 140 142 146 148 146 142 144 141 133 126 124 119 115 111 106 99 93 87 83 79 77 74 70 66 62 59 62 61 60
121 120 123 124 126 130 131 133 133 142 139 140 142 141 143 145 146 144 143 145 141 131 128 126 121 116 111 105 99 95 91 87 82 78 72 69 68 64 61 58 61 62 60
119 124 130 130 130 133 137 139 141 139 142 141 144 146 148 147 142 145 145 139 130 129 126 118 114 109 104 99 96 93 90 85 81 74 69 68 68 65 61 60 61 61 60
129 127 129 134 136 135 137 139 141 144 143 145 148 148 144 145 148 143 132 130 130 124 118 114 108 105 102 98 93 90 87 85 79 72 70 70 69 66 62 60 59 60 59
133 134 134 136 140 140 140 142 147 147 148 148 145 147 147 143 134 134 133 128 124 120 114 111 107 101 95 91 87 85 84 80 77 74 70 69 68 65 61 60 58 59 58
132 135 136 140 141 143 144 146 148 148 147 153 151 143 134 131 133 130 127 124 117 113 110 106 101 98 95 88 84 81 78 75 72 70 69 68 66 64 59 58 56 56 56
138 137 141 143 145 147 149 148 148 146 141 133 131 133 132 129 127 123 119 117 114 109 104 101 99 94 87 82 80 77 74 72 70 68 68 66 63 61 58 54 54 54 55
138 141 142 144 145 141 139 136 131 131 133 135 132 130 128 125 123 119 116 113 108 102 99 95 91 86 81 77 75 74 73 71 68 67 66 61 60 58 56 53 52 53 54
132 133 132 130 130 131 131 133 134 134 132 130 129 127 124 120 117 113 107 103 101 96 92 89 87 83 78 76 74 72 70 68 66 65 61 59 57 56 54 51 50 50 51
127 128 129 131 131 131 131 131 130 130 129 126 123 120 117 113 108 103 99 96 93 89 85 83 81 79 76 73 71 68 66 64 63 60 58 56 54 53 50 49 47 47 48
127 128 128 128 128 128 128 128 126 123 122 120 115 110 106 102 99 95 91 90 87 84 80 79 77 75 73 71 68 65 62 59 59 57 54 52 50 48 46 46 45 45 45
126 126 126 124 123 121 120 119 118 114 110 106 102 98 97 94 90 87 86 83 82 80 78 76 74 72 69 67 64 61 59 57 55 52 50 49 48 45 45 45 44 43 43
120 119 118 117 116 114 110 107 104 101 98 97 95 92 89 86 84 83 80 79 78 76 74 72 70 69 66 63 60 58 56 54 51 49 48 46 45 44 43 43 42 40 40

GFSGL_250_spd_045.txt.gz
Wind_Speed
64 66 66 65 64 65 68 70 72 73 75 76 78 80 82 84 86 89 90 92 93 96 100 102 106 108 115 113 114 114 119 119 120 122 123 123 124 126 123 119 116 117 116
63 64 64 65 66 68 70 72 73 73 76 78 81 83 86 88 90 91 94 95 98 103 106 110 113 116 121 120 119 120 125 124 124 122 124 126 128 124 116 113 111 114 113
64 66 68 71 73 72 70 72 74 77 79 81 85 87 89 92 95 97 99 99 106 108 110 112 117 123 126 127 124 125 129 127 126 126 125 126 124 118 112 112 108 104 102
69 69 70 71 72 74 77 79 81 83 85 86 88 90 93 98 97 99 105 108 109 112 117 119 124 125 129 131 129 129 130 129 129 128 128 124 118 113 111 108 100 96 93
73 73 74 75 78 80 82 84 85 87 89 89 91 94 98 102 105 109 110 114 113 116 120 124 130 127 136 136 130 130 131 132 130 131 126 120 115 113 108 101 93 81 86
75 75 76 80 83 84 85 87 89 91 92 94 95 98 103 107 111 114 112 114 115 121 124 127 130 132 139 135 132 133 134 133 133 129 122 118 115 111 103 95 85 79 74
80 82 84 86 88 90 90 92 93 95 98 101 104 108 112 116 116 114 113 115 119 123 126 129 134 139 139 137 136 136 136 135 132 123 119 118 115 108 98 87 82 75 74
81 83 87 91 92 92 92 94 97 102 105 108 112 116 117 117 120 118 118 121 124 127 130 135 137 144 143 139 138 137 137 135 128 122 119 117 112 104 93 84 78 71 71
86 89 91 93 95 95 96 97 100 106 109 112 114 117 120 126 124 123 123 125 127 132 137 142 144 148 143 141 139 140 136 131 126 123 121 116 109 98 89 82 77 68 66
91 90 91 94 96 96 99 102 106 109 110 111 114 118 125 126 127 127 130 132 133 139 142 146 150 145 142 142 143 137 130 126 124 124 118 113 105 96 89 82 75 68 64
94 94 94 96 97 100 102 107 112 113 114 116 120 125 129 130 132 132 136 137 140 139 143 145 141 144 143 144 138 133 129 124 125 120 116 109 102 96 88 83 74 68 63
97 96 98 101 105 108 112 114 116 118 119 121 125 131 134 134 134 137 141 141 140 145 145 145 144 144 145 138 133 128 126 124 120 118 113 105 98 91 86 79 73 68 62
99 102 103 105 109 111 114 117 118 119 122 126 130 136 135 133 136 143 142 143 146 142 143 142 145 145 140 134 129 129 125 122 120 114 108 102 94 89 84 77 72 67 64
106 108 110 112 115 117 119 120 121 124 127 132 133 133 136 140 140 140 144 147 145 146 144 143 140 137 131 130 130 125 124 120 114 109 104 98 91 88 83 77 70 65 65
111 113 117 119 121 121 123 124 127 131 133 135 139 137 138 137 141 141 141 143 143 144 142 138 133 131 132 130 126 124 119 114 111 105 98 92 87 82 80 76 68 65 62
120 122 124 125 125 126 128 130 133 137 139 134 134 136 138 138 137 139 142 143 140 137 133 132 132 132 130 127 124 118 114 110 104 98 93 88 83 81 79 74 67 63 60
124 125 127 129 130 133 135 137 138 135 135 135 133 134 133 134 138 138 133 133 131 132 133 132 131 130 128 124 118 114 111 106 101 97 91 85 82 81 77 72 67 64 61
129 130 131 130 133 135 135 135 132 133 132 132 132 134 131 128 129 130 131 132 132 132 131 131 129 125 121 116 111 107 104 100 96 91 86 82 80 79 76 70 66 65 64
129 128 128 129 128 128 129 129 129 127 129 129 129 129 129 129 129 131 132 132 131 131 130 126 122 121 118 113 106 101 98 94 91 86 84 82 78 75 72 68 64 63 64
119 120 122 123 124 124 123 123 124 126 127 128 128 129 129 130 130 130 130 130 129 126 122 122 119 117 112 107 102 98 95 90 85 83 80 77 72 68 68 65 63 62 60
115 116 117 118 119 120 121 122 124 126 127 127 128 128 128 129 129 129 127 124 122 121 119 116 113 109 105 101 98 94 89 85 81 79 75 71 67 65 65 63 61 59 57
114 115 116 117 118 120 122 123 124 125 125 127 128 127 126 126 125 124 122 121 120 116 112 108 105 104 101 97 92 88 84 79 76 72 69 66 64 62 61 59 57 55 53
114 115 116 117 119 120 122 123 125 125 125 124 123 122 121 121 121 120 118 115 111 107 103 100 100 96 92 89 85 81 78 72 69 67 64 63 61 58 56 54 53 51 49
116 117 117 119 121 123 124 123 121 120 120 120 120 120 120 118 114 112 108 104 101 98 95 93 90 88 84 82 79 75 72 69 66 63 61 59 57 55 53 51 49 48 47
119 119 120 119 119 118 118 118 118 118 118 117 117 115 112 108 104 100 98 96 93 91 89 85 83 81 78 76 74 72 70 68 64 60 58 57 55 53 51 48 46 45 44
117 117 117 117 116 116 116 115 114 113 111 109 106 103 100 98 96 94 91 89 87 85 83 80 78 75 74 73 71 69 67 65 62 59 57 55 52 50 49 46 44 42 42

GFSGL_250_spd_048.txt.gz
Wind_Speed
57 58 59 59 61 60 61 64 67 69 71 71 74 77 77 78 80 82 85 87 89 90 92 93 95 99 104 108 113 117 119 118 119 123 125 126 129 131 135 134 131 132 132
60 62 62 62 62 63 66 68 69 71 73 73 75 77 80 82 85 86 88 90 92 94 96 98 100 104 108 115 116 118 120 122 122 125 124 127 132 136 134 132 132 130 125
61 63 65 67 68 69 71 72 71 74 76 78 80 82 85 88 90 91 93 96 96 99 101 101 105 110 116 120 123 124 124 125 124 123 125 129 134 134 132 132 130 125 120
66 68 69 71 72 73 74 74 75 78 79 80 84 87 90 93 95 97 100 100 100 101 103 109 113 119 119 119 122 123 125 125 126 126 129 132 136 136 133 129 124 119 116
69 72 73 72 73 74 75 77 80 82 85 88 89 91 94 97 100 101 102 102 104 106 110 112 114 116 121 122 126 128 127 129 130 133 137 137 139 137 133 127 120 117 113
73 74 78 80 80 78 80 81 83 85 87 88 92 95 97 100 102 105 106 108 111 116 119 119 119 122 124 127 131 133 135 134 136 138 138 143 142 137 131 123 120 117 111
78 79 83 84 84 82 83 85 87 87 89 93 96 98 101 105 108 108 110 115 114 118 123 126 126 129 129 135 135 140 137 138 141 140 146 145 140 133 125 121 120 114 111
84 86 87 90 90 87 88 86 87 93 97 99 98 101 104 109 112 114 117 118 121 125 128 130 131 132 136 139 142 141 143 144 145 146 144 142 135 128 124 123 118 113 107
92 94 93 91 90 90 91 92 95 97 99 100 103 106 107 110 112 117 120 123 125 129 131 132 133 137 141 144 143 146 144 145 147 148 143 137 131 128 126 120 116 111 100
93 94 95 95 95 95 96 96 95 96 99 103 105 109 112 115 117 123 124 126 132 132 134 135 139 143 147 147 148 145 144 146 146 142 138 132 130 127 124 121 114 106 98
95 96 98 99 100 99 96 93 94 97 101 104 110 113 117 120 123 125 127 129 131 133 136 141 144 150 150 153 148 145 145 141 138 135 133 132 129 125 122 117 110 104 96
91 94 94 94 98 101 98 100 101 103 105 107 110 113 117 120 124 127 130 132 136 137 140 145 148 148 151 146 145 142 139 135 133 133 131 127 125 121 115 111 106 100 94
99 99 100 102 103 107 105 108 108 112 115 113 114 117 121 123 127 132 134 137 140 142 145 148 147 146 142 138 138 137 136 134 133 131 128 126 122 117 112 107 102 95 88
110 109 108 109 113 112 114 115 117 119 117 119 121 125 128 131 133 137 139 143 146 147 148 145 141 139 136 135 135 135 135 133 131 130 129 124 118 113 108 99 95 89 82
116 116 116 118 119 119 118 120 118 121 123 127 129 131 132 135 138 141 144 146 146 146 141 136 134 133 133 133 132 132 131 129 128 126 122 118 112 105 98 94 89 84 77
121 121 121 123 123 125 125 125 128 128 127 128 130 132 135 139 141 142 141 138 136 134 132 132 133 134 134 133 132 131 130 129 125 121 117 111 105 99 95 92 86 81 76
125 126 125 124 126 125 126 126 128 127 128 130 129 129 131 130 129 129 129 130 129 131 131 132 133 133 132 132 132 131 127 124 120 116 112 106 100 95 92 89 83 78 75
115 114 114 115 114 114 114 114 115 115 116 117 118 120 121 121 122 124 125 126 129 130 132 131 130 130 131 130 127 124 122 119 114 107 102 98 95 92 89 85 80 75 72
108 107 106 106 106 107 109 110 111 111 111 111 113 113 117 120 122 125 126 127 128 128 129 129 129 128 127 125 123 120 116 110 104 99 95 94 91 86 83 80 76 73 69
105 106 106 105 105 105 107 109 110 111 112 113 115 116 118 121 121 123 125 126 127 127 127 126 125 124 123 122 118 113 108 103 97 94 92 88 85 82 78 76 73 70 66
106 107 108 108 108 109 109 109 110 111 112 113 115 117 119 120 122 124 124 124 124 124 123 123 121 119 118 114 111 105 100 96 93 90 87 83 79 76 74 71 68 65 61
107 107 108 108 109 110 110 111 112 113 114 116 118 119 121 122 122 121 121 121 122 121 120 118 116 113 109 104 100 97 95 91 88 86 81 78 75 72 69 67 63 60 57
108 108 108 108 109 111 112 113 115 116 117 118 119 118 117 118 118 119 119 119 119 117 115 113 109 105 100 96 94 91 90 86 82 79 76 74 72 69 65 62 58 55 54
110 111 111 112 113 115 115 116 116 116 116 115 115 115 116 116 117 117 116 115 113 111 106 102 98 96 93 91 87 85 84 81 77 75 74 72 68 64 61 58 55 53 50
115 115 115 115 114 113 114 114 114 114 114 114 114 115 115 115 114 113 111 108 104 99 95 92 91 88 87 84 81 79 77 75 73 71 70 67 64 61 58 56 53 50 48
115 114 113 112 112 113 114 114 114 114 114 114 113 112 111 108 105 102 99 96 93 91 89 86 84 82 81 79 77 76 74 71 69 68 67 64 61 58 56 53 51 48 47